Weather History for KEFD - November, 2012

Change the Weather History Date:

Thursday, November 15, 2012

  Actual Average Record
Temperature  
Mean Temperature 60 °F -  
Max Temperature 73 °F 70 °F 87 °F (2005)
Min Temperature 46 °F 53 °F 39 °F (1997)
Degree Days  
Heating Degree Days 6    
Growing Degree Days 10 (Base 50)    
Moisture  
Dew Point 36 °F    
Average Humidity 48    
Maximum Humidity 71    
Minimum Humidity 32    
Precipitation  
Precipitation 0.00 in - - ()
Sea Level Pressure  
Sea Level Pressure 30.28 in    
Wind  
Wind Speed 2 mph (ENE)    
Max Wind Speed 8 mph    
Max Gust Speed -    
Visibility 10 miles    
Events      
Averages and records for this station are not official NWS values.
T = Trace of Precipitation, MM = Missing Value Source: NWS Daily Summary

Daily Weather History Graph

Daily Weather History Graph

Search for Another Location

Airport or City:

Trip Planner

Search our weather history database for the weather conditions in past years. The results will help you decide how hot, cold, wet, or windy it might be!

Date:

Astronomy

Nov. 15, 2012 Rise Set
Actual Time 6:45 AM CST 5:24 PM CST
Civil Twilight 6:20 AM CST 5:50 PM CST
Nautical Twilight 5:51 AM CST 6:18 PM CST
Astronomical Twilight 5:23 AM CST 6:47 PM CST
Moon 8:37 AM CST (11/15) 7:22 PM CST (11/15)
Length of Visible Light 11h 30m
Length of Day
10h 39m
Waxing Crescent, 5% of the Moon is Illuminated
Nov 15
Waxing Crescent
Nov 20
First Quarter
Nov 28
Full
Dec 6
Last Quarter
Dec 13
New

Hourly Weather History & Observations

Time (CST) Temp. Dew Point Humidity Pressure Visibility Wind Dir Wind Speed Gust Speed Precip Events Conditions
12:50 AM 50.0 °F 30.2 °F 47% 30.30 in 10.0 mi Calm Calm - N/A   Clear
1:50 AM 50.0 °F 32.0 °F 50% 30.28 in 10.0 mi Calm Calm - N/A   Clear
2:50 AM 48.2 °F 30.2 °F 50% 30.28 in 10.0 mi Calm Calm - N/A   Clear
3:50 AM 48.2 °F 30.2 °F 50% 30.28 in 10.0 mi Calm Calm - N/A   Clear
4:50 AM 46.4 °F 35.6 °F 66% 30.28 in 10.0 mi Calm Calm - N/A   Clear
5:50 AM 46.4 °F 35.6 °F 66% 30.29 in 10.0 mi Calm Calm - N/A   Clear
6:50 AM 46.4 °F 37.4 °F 71% 30.30 in 10.0 mi Calm Calm - N/A   Partly Cloudy
7:50 AM 48.2 °F 37.4 °F 66% 30.31 in 10.0 mi NE 4.6 mph - N/A   Clear
8:50 AM 51.8 °F 39.2 °F 62% 30.32 in 10.0 mi NE 8.1 mph - N/A   Clear
10:50 AM 59.0 °F 37.4 °F 45% 30.33 in 10.0 mi ENE 8.1 mph - N/A   Scattered Clouds
12:50 PM 64.4 °F 37.4 °F 37% 30.26 in 10.0 mi Variable 2.3 mph - N/A   Scattered Clouds
1:50 PM 68.0 °F 39.2 °F 35% 30.25 in 10.0 mi NNE 4.6 mph - N/A   Scattered Clouds
2:50 PM 71.6 °F 41.0 °F 33% 30.23 in 10.0 mi ESE 6.9 mph - N/A   Scattered Clouds
3:50 PM 73.4 °F 42.8 °F 33% 30.22 in 10.0 mi ESE 5.8 mph - N/A   Mostly Cloudy
4:50 PM 71.6 °F 42.8 °F 35% 30.22 in 10.0 mi ESE 3.5 mph - N/A   Mostly Cloudy
6:50 PM 62.6 °F 32.0 °F 32% 30.26 in 10.0 mi Calm Calm - N/A   Mostly Cloudy
7:50 PM 57.2 °F 32.0 °F 38% 30.28 in 10.0 mi Calm Calm - N/A   Scattered Clouds
8:50 PM 57.2 °F 35.6 °F 44% 30.28 in 10.0 mi Calm Calm - N/A   Mostly Cloudy
9:50 PM 55.4 °F 35.6 °F 47% 30.30 in 10.0 mi Calm Calm - N/A   Mostly Cloudy
10:50 PM 55.4 °F 35.6 °F 47% 30.30 in 10.0 mi Calm Calm - N/A   Mostly Cloudy
11:50 PM 57.2 °F 42.8 °F 59% 30.30 in 10.0 mi NNE 4.6 mph - N/A   Mostly Cloudy